Tracking 30990 objects as of 8-Jul-2025
HD Live streaming from Space Station
objects crossing your sky now

STARLINK-5540

Track STARLINK-5540 now!
10-day predictions
STARLINK-5540 is classified as:


NORAD ID: 56340
Int'l Code: 2023-058Z
Perigee: 568.7 km
Apogee: 571.6 km
Inclination: 97.7 °
Period: 95.9 minutes
Semi major axis: 6941 km
RCS: Unknown
Launch date: April 27, 2023
Source: United States (US)
Launch site: AIR FORCE WESTERN TEST RANGE (AFWTR)
Your satellite tracking list
Your tracking list is empty




NASA's NSSDC Master Catalog

Two Line Element Set (TLE):
1 56340U 23058Z   25189.56645998  .00000618  00000-0  52731-4 0  9990
2 56340  97.6550 190.8659 0002083 129.9934 230.1473 15.01260216121503
Source of the keplerian elements: AFSPC